| time (UTC) | temp C | wind direction | speed KPH | gust KPH | rain 1hr cm | rain 24hr cm | rain mn cm | humidity % | barometer mb |
| 20260831034009 | 15 | 200 | 6.4 | 12.9 | 0.00 | 0.00 | 0.00 | 64 | 1030.0 |
| 20260831033506 | 15 | 165 | 8.0 | 14.5 | 0.00 | 0.00 | 0.00 | 66 | 1030.1 |
| 20260831033034 | 15 | 185 | 4.8 | 14.5 | 0.00 | 0.00 | 0.00 | 67 | 1030.2 |
| 20260831032508 | 15 | 237 | 8.0 | 14.5 | 0.00 | 0.00 | 0.00 | 67 | 1030.3 |
| 20260831032006 | 15 | 213 | 4.8 | 14.5 | 0.00 | 0.00 | 0.00 | 66 | 1030.2 |
| 20260831031521 | 15 | 204 | 4.8 | 14.5 | 0.00 | 0.00 | 0.00 | 67 | 1030.2 |
| 20260831031007 | 15 | 235 | 4.8 | 11.3 | 0.00 | 0.00 | 0.00 | 65 | 1030.3 |
| 20260831030503 | 15 | 170 | 4.8 | 12.9 | 0.00 | 0.00 | 0.00 | 68 | 1030.4 |
| 20260831030004 | 15 | 198 | 4.8 | 14.5 | 0.00 | 0.00 | 0.00 | 69 | 1030.5 |
| 20260831025504 | 15 | 194 | 8.0 | 14.5 | 0.00 | 0.00 | 0.00 | 67 | 1030.6 |
| 20260831025017 | 14 | 223 | 6.4 | 14.5 | 0.00 | 0.00 | 0.00 | 69 | 1030.8 |
| 20260831024511 | 14 | 208 | 8.0 | 14.5 | 0.00 | 0.00 | 0.00 | 69 | 1030.9 |
| 20260831024004 | 14 | 197 | 9.7 | 16.1 | 0.00 | 0.00 | 0.00 | 70 | 1030.8 |
| 20260831023513 | 14 | 217 | 9.7 | 16.1 | 0.00 | 0.00 | 0.00 | 70 | 1030.8 |
| 20260831023010 | 14 | 195 | 6.4 | 14.5 | 0.00 | 0.00 | 0.00 | 70 | 1030.9 |
| 20260831022514 | 13 | 126 | 6.4 | 16.1 | 0.00 | 0.00 | 0.00 | 71 | 1031.0 |
| 20260831022011 | 13 | 202 | 6.4 | 16.1 | 0.00 | 0.00 | 0.00 | 72 | 1031.1 |
| 20260831021510 | 13 | 161 | 8.0 | 16.1 | 0.00 | 0.00 | 0.00 | 71 | 1031.3 |
| 20260831021014 | 13 | 206 | 4.8 | 14.5 | 0.00 | 0.00 | 0.00 | 72 | 1031.4 |
| 20260831020510 | 13 | 170 | 8.0 | 14.5 | 0.00 | 0.00 | 0.00 | 73 | 1031.3 |
| 20260831020031 | 13 | 216 | 8.0 | 16.1 | 0.00 | 0.00 | 0.00 | 72 | 1031.4 |
| 20260831015505 | 13 | 197 | 9.7 | 16.1 | 0.00 | 0.00 | 0.00 | 73 | 1031.4 |
| 20260831015003 | 13 | 166 | 6.4 | 12.9 | 0.00 | 0.00 | 0.00 | 75 | 1031.6 |
| 20260831014530 | 13 | 172 | 8.0 | 12.9 | 0.00 | 0.00 | 0.00 | 74 | 1031.7 |
| 20260831014008 | 13 | 202 | 4.8 | 12.9 | 0.00 | 0.00 | 0.00 | 73 | 1031.6 |
| 20260831013510 | 13 | 209 | 6.4 | 14.5 | 0.00 | 0.00 | 0.00 | 73 | 1031.5 |
| 20260831013026 | 12 | 206 | 3.2 | 14.5 | 0.00 | 0.00 | 0.00 | 75 | 1031.6 |
| 20260831012511 | 12 | 198 | 4.8 | 14.5 | 0.00 | 0.00 | 0.00 | 73 | 1031.7 |
| 20260831012011 | 12 | 175 | 4.8 | 14.5 | 0.00 | 0.00 | 0.00 | 75 | 1032.0 |
| 20260831011523 | 12 | 201 | 4.8 | 14.5 | 0.00 | 0.00 | 0.00 | 75 | 1032.0 |
| 20260831011007 | 12 | 131 | 6.4 | 12.9 | 0.00 | 0.00 | 0.00 | 75 | 1031.9 |
| 20260831010516 | 12 | 216 | 8.0 | 12.9 | 0.00 | 0.00 | 0.00 | 76 | 1031.9 |
| 20260831010038 | 12 | 189 | 6.4 | 12.9 | 0.00 | 0.00 | 0.00 | 76 | 1031.9 |
| 20260831005506 | 12 | 149 | 4.8 | 14.5 | 0.00 | 0.00 | 0.00 | 76 | 1032.0 |
| 20260831005019 | 11 | 194 | 9.7 | 12.9 | 0.00 | 0.00 | 0.00 | 77 | 1032.1 |
| 20260831004514 | 11 | 185 | 6.4 | 11.3 | 0.00 | 0.00 | 0.00 | 78 | 1032.1 |
| 20260831004020 | 11 | 223 | 3.2 | 12.9 | 0.00 | 0.00 | 0.00 | 76 | 1032.1 |
| 20260831003515 | 11 | 197 | 3.2 | 12.9 | 0.00 | 0.00 | 0.00 | 77 | 1032.1 |
| 20260831003012 | 11 | 189 | 6.4 | 12.9 | 0.00 | 0.00 | 0.00 | 77 | 1032.1 |
| 20260831002513 | 11 | 203 | 8.0 | 11.3 | 0.00 | 0.00 | 0.00 | 78 | 1032.1 |
| 20260831002011 | 11 | 220 | 3.2 | 12.9 | 0.00 | 0.00 | 0.00 | 78 | 1032.1 |
| 20260831001517 | 11 | 191 | 6.4 | 14.5 | 0.00 | 0.00 | 0.00 | 79 | 1032.3 |
| 20260831001013 | 11 | 197 | 6.4 | 14.5 | 0.00 | 0.00 | 0.00 | 79 | 1032.3 |
| 20260831000512 | 11 | 203 | 8.0 | 14.5 | 0.00 | 0.00 | 0.00 | 79 | 1032.4 |
| 20260831000024 | 10 | 185 | 6.4 | 11.3 | 0.00 | 0.00 | 0.00 | 80 | 1032.4 |
| 20260830235514 | 10 | 185 | 6.4 | 11.3 | 0.00 | 0.00 | 0.00 | 79 | 1032.2 |
| 20260830235007 | 10 | 206 | 4.8 | 11.3 | 0.00 | 0.00 | 0.00 | 80 | 1032.1 |
| 20260830234540 | 10 | 199 | 6.4 | 11.3 | 0.00 | 0.00 | 0.00 | 80 | 1032.1 |
| 20260830234011 | 10 | 171 | 6.4 | 11.3 | 0.00 | 0.00 | 0.00 | 80 | 1032.3 |
| 20260830233516 | 10 | 210 | 3.2 | 8.0 | 0.00 | 0.00 | 0.00 | 80 | 1032.3 |
| 20260830233030 | 10 | 234 | 1.6 | 8.0 | 0.00 | 0.00 | 0.00 | 80 | 1032.4 |
| 20260830232510 | 10 | 196 | 3.2 | 8.0 | 0.00 | 0.00 | 0.00 | 81 | 1032.1 |
| 20260830232023 | 10 | 226 | 3.2 | 6.4 | 0.00 | 0.00 | 0.00 | 81 | 1032.1 |
| 20260830231515 | 9 | 202 | 0.0 | 4.8 | 0.00 | 0.00 | 0.00 | 81 | 1032.1 |
| 20260830231008 | 9 | 175 | 0.0 | 4.8 | 0.00 | 0.00 | 0.00 | 81 | 1032.4 |
| 20260830230517 | 9 | 229 | 0.0 | 6.4 | 0.00 | 0.00 | 0.00 | 81 | 1032.5 |
| 20260830230020 | 9 | 224 | 3.2 | 6.4 | 0.00 | 0.00 | 0.00 | 81 | 1032.4 |
| 20260830225511 | 9 | 185 | 0.0 | 6.4 | 0.00 | 0.00 | 0.00 | 82 | 1032.3 |
| 20260830225014 | 8 | 191 | 1.6 | 8.0 | 0.00 | 0.00 | 0.00 | 81 | 1032.4 |
| 20260830224517 | 8 | 169 | 4.8 | 8.0 | 0.00 | 0.00 | 0.00 | 82 | 1032.6 |
| 20260830224016 | 8 | 200 | 1.6 | 6.4 | 0.00 | 0.00 | 0.00 | 82 | 1032.6 |
| 20260830223514 | 8 | 112 | 1.6 | 4.8 | 0.00 | 0.00 | 0.00 | 83 | 1032.6 |
| 20260830223036 | 8 | 120 | 0.0 | 6.4 | 0.00 | 0.00 | 0.00 | 83 | 1032.6 |
| 20260830222519 | 8 | 121 | 3.2 | 8.0 | 0.00 | 0.00 | 0.00 | 83 | 1032.6 |
| 20260830222018 | 8 | 151 | 3.2 | 8.0 | 0.00 | 0.00 | 0.00 | 83 | 1032.6 |
| 20260830221537 | 8 | 185 | 3.2 | 8.0 | 0.00 | 0.00 | 0.00 | 83 | 1032.7 |
| 20260830221014 | 8 | 156 | 4.8 | 8.0 | 0.00 | 0.00 | 0.00 | 83 | 1032.7 |
| 20260830220511 | 8 | 116 | 0.0 | 6.4 | 0.00 | 0.00 | 0.00 | 83 | 1032.7 |
| 20260830220019 | 8 | 145 | 3.2 | 8.0 | 0.00 | 0.00 | 0.00 | 83 | 1032.7 |
| 20260830215515 | 8 | 170 | 3.2 | 8.0 | 0.00 | 0.00 | 0.00 | 83 | 1032.7 |
| 20260830215016 | 8 | 142 | 4.8 | 9.7 | 0.00 | 0.00 | 0.00 | 83 | 1032.6 |
| 20260830214523 | 8 | 158 | 4.8 | 9.7 | 0.00 | 0.00 | 0.00 | 83 | 1032.6 |
| 20260830214013 | 8 | 155 | 3.2 | 8.0 | 0.00 | 0.00 | 0.00 | 83 | 1032.5 |
| 20260830213512 | 8 | 129 | 3.2 | 8.0 | 0.00 | 0.00 | 0.00 | 83 | 1032.5 |
| 20260830213029 | 8 | 148 | 3.2 | 9.7 | 0.00 | 0.00 | 0.00 | 83 | 1032.4 |
| 20260830212510 | 8 | 164 | 4.8 | 12.9 | 0.00 | 0.00 | 0.00 | 83 | 1032.3 |
| 20260830212017 | 8 | 156 | 6.4 | 12.9 | 0.00 | 0.00 | 0.00 | 83 | 1032.3 |
| 20260830211525 | 8 | 101 | 4.8 | 12.9 | 0.00 | 0.00 | 0.00 | 83 | 1032.3 |
| 20260830211019 | 8 | 129 | 6.4 | 11.3 | 0.00 | 0.00 | 0.00 | 83 | 1032.3 |
| 20260830210519 | 8 | 164 | 4.8 | 11.3 | 0.00 | 0.00 | 0.00 | 83 | 1032.3 |
| 20260830210024 | 8 | 129 | 6.4 | 11.3 | 0.00 | 0.00 | 0.00 | 83 | 1032.2 |
| 20260830205515 | 8 | 166 | 1.6 | 6.4 | 0.00 | 0.00 | 0.00 | 83 | 1032.1 |
| 20260830205013 | 8 | 153 | 3.2 | 6.4 | 0.00 | 0.00 | 0.00 | 83 | 1032.0 |
| 20260830204537 | 8 | 162 | 3.2 | 14.5 | 0.00 | 0.00 | 0.00 | 82 | 1032.2 |
| 20260830204010 | 8 | 155 | 6.4 | 14.5 | 0.00 | 0.00 | 0.00 | 83 | 1032.3 |
| 20260830203512 | 8 | 167 | 3.2 | 8.0 | 0.00 | 0.00 | 0.00 | 82 | 1032.3 |
| 20260830203044 | 8 | 162 | 4.8 | 14.5 | 0.00 | 0.00 | 0.00 | 82 | 1032.2 |
| 20260830202505 | 8 | 120 | 8.0 | 14.5 | 0.00 | 0.00 | 0.00 | 82 | 1032.2 |
| 20260830202003 | 8 | 145 | 4.8 | 14.5 | 0.00 | 0.00 | 0.00 | 82 | 1032.1 |
| 20260830201503 | 8 | 149 | 11.3 | 14.5 | 0.00 | 0.00 | 0.00 | 82 | 1032.2 |
| 20260830201007 | 8 | 137 | 6.4 | 12.9 | 0.00 | 0.00 | 0.00 | 82 | 1032.0 |
| 20260830200459 | 8 | 151 | 4.8 | 9.7 | 0.00 | 0.00 | 0.00 | 82 | 1032.0 |
| 20260830200002 | 8 | 162 | 3.2 | 8.0 | 0.00 | 0.00 | 0.00 | 82 | 1032.0 |
| 20260830195502 | 8 | 135 | 3.2 | 11.3 | 0.00 | 0.00 | 0.00 | 82 | 1032.1 |
| 20260830195002 | 8 | 189 | 6.4 | 11.3 | 0.00 | 0.00 | 0.00 | 82 | 1032.0 |
| 20260830194504 | 8 | 130 | 4.8 | 12.9 | 0.00 | 0.00 | 0.00 | 82 | 1032.0 |
| 20260830194003 | 8 | 172 | 3.2 | 12.9 | 0.00 | 0.00 | 0.00 | 82 | 1032.0 |
| 20260830193502 | 8 | 145 | 6.4 | 12.9 | 0.00 | 0.00 | 0.00 | 82 | 1032.0 |
| 20260830193007 | 8 | 114 | 8.0 | 12.9 | 0.00 | 0.00 | 0.00 | 82 | 1032.0 |
| 20260830192505 | 8 | 129 | 6.4 | 12.9 | 0.00 | 0.00 | 0.00 | 82 | 1032.0 |
| 20260830192004 | 8 | 151 | 8.0 | 12.9 | 0.00 | 0.00 | 0.00 | 82 | 1032.1 |
| 20260830191509 | 8 | 152 | 6.4 | 9.7 | 0.00 | 0.00 | 0.00 | 83 | 1032.0 |
| 20260830191001 | 8 | 172 | 3.2 | 9.7 | 0.00 | 0.00 | 0.00 | 83 | 1032.0 |
| 20260830190504 | 8 | 191 | 4.8 | 14.5 | 0.00 | 0.00 | 0.00 | 82 | 1032.0 |
| 20260830190004 | 8 | 185 | 6.4 | 14.5 | 0.00 | 0.00 | 0.00 | 82 | 1031.9 |
| 20260830185503 | 8 | 134 | 4.8 | 9.7 | 0.00 | 0.00 | 0.00 | 83 | 1031.9 |
| 20260830185004 | 8 | 180 | 4.8 | 11.3 | 0.00 | 0.00 | 0.00 | 83 | 1031.9 |
| 20260830184508 | 8 | 132 | 6.4 | 11.3 | 0.00 | 0.00 | 0.00 | 83 | 1031.9 |
| 20260830184008 | 8 | 132 | 3.2 | 12.9 | 0.00 | 0.00 | 0.00 | 84 | 1032.0 |
| 20260830183502 | 8 | 172 | 6.4 | 12.9 | 0.00 | 0.00 | 0.00 | 84 | 1032.0 |
| 20260830183003 | 8 | 163 | 3.2 | 8.0 | 0.00 | 0.00 | 0.00 | 84 | 1032.0 |
| 20260830182503 | 8 | 185 | 4.8 | 16.1 | 0.00 | 0.00 | 0.00 | 84 | 1032.1 |
| 20260830182004 | 8 | 180 | 8.0 | 16.1 | 0.00 | 0.00 | 0.00 | 85 | 1032.0 |
| 20260830181504 | 8 | 149 | 4.8 | 12.9 | 0.00 | 0.00 | 0.00 | 85 | 1032.1 |
| 20260830181004 | 8 | 175 | 4.8 | 12.9 | 0.00 | 0.00 | 0.00 | 85 | 1032.2 |
| 20260830180505 | 8 | 160 | 6.4 | 12.9 | 0.00 | 0.00 | 0.00 | 86 | 1032.2 |
| 20260830180003 | 8 | 127 | 4.8 | 9.7 | 0.00 | 0.00 | 0.00 | 86 | 1032.2 |
| 20260830175507 | 8 | 154 | 4.8 | 9.7 | 0.00 | 0.00 | 0.00 | 86 | 1032.2 |
| 20260830175004 | 8 | 147 | 4.8 | 11.3 | 0.00 | 0.00 | 0.00 | 86 | 1032.2 |
| 20260830174503 | 8 | 141 | 4.8 | 11.3 | 0.00 | 0.00 | 0.00 | 86 | 1032.2 |
| 20260830174003 | 8 | 185 | 6.4 | 11.3 | 0.00 | 0.00 | 0.00 | 86 | 1032.2 |
| 20260830173502 | 8 | 163 | 6.4 | 11.3 | 0.00 | 0.00 | 0.00 | 87 | 1032.2 |
| 20260830173012 | 8 | 189 | 6.4 | 11.3 | 0.00 | 0.00 | 0.00 | 87 | 1032.3 |
| 20260830172506 | 8 | 175 | 4.8 | 8.0 | 0.00 | 0.00 | 0.00 | 87 | 1032.2 |
| 20260830172003 | 8 | 165 | 3.2 | 8.0 | 0.00 | 0.00 | 0.00 | 87 | 1032.2 |
| 20260830171503 | 8 | 185 | 6.4 | 8.0 | 0.00 | 0.00 | 0.00 | 87 | 1032.2 |
| 20260830171004 | 8 | 172 | 4.8 | 8.0 | 0.00 | 0.00 | 0.00 | 87 | 1032.2 |
| 20260830170506 | 8 | 180 | 4.8 | 8.0 | 0.00 | 0.00 | 0.00 | 87 | 1032.2 |
| 20260830170007 | 8 | 180 | 4.8 | 8.0 | 0.00 | 0.00 | 0.00 | 88 | 1032.2 |
| 20260830165504 | 8 | 175 | 4.8 | 8.0 | 0.00 | 0.00 | 0.00 | 88 | 1032.2 |
| 20260830165005 | 8 | 159 | 3.2 | 11.3 | 0.00 | 0.00 | 0.00 | 88 | 1032.2 |
| 20260830164508 | 8 | 155 | 4.8 | 11.3 | 0.00 | 0.00 | 0.00 | 88 | 1032.2 |
| 20260830164006 | 8 | 185 | 4.8 | 9.7 | 0.00 | 0.00 | 0.00 | 88 | 1032.3 |
| 20260830163506 | 8 | 180 | 6.4 | 9.7 | 0.00 | 0.00 | 0.00 | 88 | 1032.3 |
| 20260830163006 | 8 | 196 | 4.8 | 9.7 | 0.00 | 0.00 | 0.00 | 88 | 1032.4 |
| 20260830162509 | 8 | 149 | 6.4 | 9.7 | 0.00 | 0.00 | 0.00 | 88 | 1032.4 |
| 20260830162003 | 8 | 130 | 4.8 | 8.0 | 0.00 | 0.00 | 0.00 | 88 | 1032.4 |
| 20260830161504 | 8 | 147 | 3.2 | 11.3 | 0.00 | 0.00 | 0.00 | 88 | 1032.4 |
| 20260830161009 | 8 | 171 | 4.8 | 11.3 | 0.00 | 0.00 | 0.00 | 88 | 1032.5 |
| 20260830160503 | 8 | 149 | 4.8 | 8.0 | 0.00 | 0.00 | 0.00 | 88 | 1032.6 |
| 20260830160008 | 8 | 180 | 3.2 | 8.0 | 0.00 | 0.00 | 0.00 | 88 | 1032.6 |
| 20260830155506 | 8 | 141 | 4.8 | 8.0 | 0.00 | 0.00 | 0.00 | 88 | 1032.6 |
| 20260830155003 | 8 | 137 | 3.2 | 6.4 | 0.00 | 0.00 | 0.00 | 88 | 1032.7 |
| 20260830154507 | 8 | 139 | 4.8 | 6.4 | 0.00 | 0.00 | 0.00 | 88 | 1032.6 |
| 20260830154004 | 8 | 169 | 3.2 | 6.4 | 0.00 | 0.00 | 0.00 | 88 | 1032.7 |
| 20260830153505 | 8 | 175 | 3.2 | 6.4 | 0.00 | 0.00 | 0.00 | 88 | 1032.7 |
| 20260830153007 | 8 | 150 | 1.6 | 6.4 | 0.00 | 0.00 | 0.00 | 88 | 1032.7 |
| 20260830152503 | 8 | 164 | 3.2 | 8.0 | 0.00 | 0.00 | 0.00 | 88 | 1032.8 |
| 20260830152003 | 8 | 140 | 3.2 | 8.0 | 0.00 | 0.00 | 0.00 | 88 | 1032.8 |
| 20260830151530 | 8 | 170 | 4.8 | 8.0 | 0.00 | 0.00 | 0.00 | 88 | 1032.8 |
| 20260830151004 | 8 | 149 | 4.8 | 9.7 | 0.00 | 0.00 | 0.00 | 88 | 1032.8 |
| 20260830150511 | 8 | 125 | 4.8 | 11.3 | 0.00 | 0.00 | 0.00 | 88 | 1032.8 |
| 20260830150011 | 8 | 164 | 4.8 | 11.3 | 0.00 | 0.00 | 0.00 | 88 | 1032.8 |
| 20260830145503 | 8 | 139 | 6.4 | 11.3 | 0.00 | 0.00 | 0.00 | 88 | 1032.8 |
| 20260830145004 | 8 | 162 | 4.8 | 9.7 | 0.00 | 0.00 | 0.00 | 88 | 1032.8 |
| 20260830144504 | 8 | 138 | 4.8 | 9.7 | 0.00 | 0.00 | 0.00 | 88 | 1032.7 |
| 20260830144003 | 8 | 175 | 4.8 | 12.9 | 0.00 | 0.00 | 0.00 | 88 | 1032.8 |
| 20260830143507 | 8 | 118 | 6.4 | 12.9 | 0.00 | 0.00 | 0.00 | 88 | 1032.8 |
| 20260830143005 | 8 | 126 | 8.0 | 12.9 | 0.00 | 0.00 | 0.00 | 88 | 1032.8 |
| 20260830142507 | 8 | 144 | 4.8 | 9.7 | 0.00 | 0.00 | 0.00 | 88 | 1032.8 |
| 20260830142007 | 8 | 160 | 4.8 | 12.9 | 0.00 | 0.00 | 0.00 | 88 | 1032.9 |
| 20260830141504 | 8 | 131 | 6.4 | 12.9 | 0.00 | 0.00 | 0.00 | 87 | 1032.9 |
| 20260830141008 | 8 | 152 | 6.4 | 14.5 | 0.00 | 0.00 | 0.00 | 87 | 1032.9 |
| 20260830140505 | 8 | 139 | 8.0 | 14.5 | 0.00 | 0.00 | 0.00 | 87 | 1033.0 |
| 20260830140023 | 8 | 153 | 8.0 | 12.9 | 0.00 | 0.00 | 0.00 | 87 | 1033.1 |
| 20260830135507 | 8 | 135 | 6.4 | 12.9 | 0.00 | 0.00 | 0.00 | 87 | 1033.1 |
| 20260830135005 | 8 | 116 | 6.4 | 12.9 | 0.00 | 0.00 | 0.00 | 87 | 1033.2 |
| 20260830134528 | 8 | 175 | 4.8 | 12.9 | 0.00 | 0.00 | 0.00 | 87 | 1033.2 |
| 20260830134008 | 8 | 147 | 6.4 | 12.9 | 0.00 | 0.00 | 0.00 | 87 | 1033.3 |
| 20260830133505 | 8 | 145 | 4.8 | 8.0 | 0.00 | 0.00 | 0.00 | 87 | 1033.3 |
| 20260830133004 | 7 | 191 | 1.6 | 4.8 | 0.00 | 0.00 | 0.00 | 87 | 1033.3 |
| 20260830132504 | 7 | 208 | 1.6 | 3.2 | 0.00 | 0.00 | 0.00 | 86 | 1033.3 |
| 20260830132006 | 7 | 208 | 1.6 | 4.8 | 0.00 | 0.00 | 0.00 | 86 | 1033.4 |
| 20260830131522 | 7 | 208 | 0.0 | 6.4 | 0.00 | 0.00 | 0.00 | 86 | 1033.4 |
| 20260830131006 | 7 | 190 | 3.2 | 6.4 | 0.00 | 0.00 | 0.00 | 86 | 1033.4 |
| 20260830130507 | 7 | 191 | 3.2 | 6.4 | 0.00 | 0.00 | 0.00 | 86 | 1033.4 |
| 20260830130012 | 7 | 164 | 1.6 | 4.8 | 0.00 | 0.00 | 0.00 | 86 | 1033.3 |
| 20260830125509 | 7 | 160 | 1.6 | 3.2 | 0.00 | 0.00 | 0.00 | 86 | 1033.2 |
| 20260830125009 | 7 | 160 | 1.6 | 3.2 | 0.00 | 0.00 | 0.00 | 86 | 1033.2 |
| 20260830124508 | 7 | 160 | 0.0 | 3.2 | 0.00 | 0.00 | 0.00 | 85 | 1033.2 |
| 20260830124016 | 7 | 160 | 0.0 | 3.2 | 0.00 | 0.00 | 0.00 | 85 | 1033.2 |
| 20260830123510 | 7 | 160 | 0.0 | 3.2 | 0.00 | 0.00 | 0.00 | 85 | 1033.3 |
| 20260830123006 | 7 | 160 | 1.6 | 3.2 | 0.00 | 0.00 | 0.00 | 85 | 1033.3 |
| 20260830122513 | 7 | 160 | 0.0 | 4.8 | 0.00 | 0.00 | 0.00 | 85 | 1033.3 |
| 20260830122008 | 7 | 160 | 0.0 | 4.8 | 0.00 | 0.00 | 0.00 | 85 | 1033.3 |
| 20260830121527 | 7 | 172 | 1.6 | 4.8 | 0.00 | 0.00 | 0.00 | 84 | 1033.3 |
| 20260830121003 | 7 | 172 | 0.0 | 4.8 | 0.00 | 0.00 | 0.00 | 84 | 1033.3 |
| 20260830120507 | 7 | 172 | 1.6 | 4.8 | 0.00 | 0.00 | 0.00 | 84 | 1033.3 |
| 20260830120012 | 8 | 168 | 0.0 | 4.8 | 0.00 | 0.00 | 0.00 | 84 | 1033.3 |
| 20260830115508 | 8 | 175 | 1.6 | 4.8 | 0.00 | 0.00 | 0.00 | 84 | 1033.3 |
| 20260830115004 | 8 | 175 | 1.6 | 4.8 | 0.00 | 0.00 | 0.00 | 84 | 1033.3 |
| 20260830114523 | 8 | 175 | 1.6 | 3.2 | 0.00 | 0.00 | 0.00 | 83 | 1033.4 |
| 20260830114006 | 8 | 175 | 0.0 | 4.8 | 0.00 | 0.00 | 0.00 | 83 | 1033.3 |
| 20260830113512 | 8 | 175 | 1.6 | 6.4 | 0.00 | 0.00 | 0.00 | 83 | 1033.3 |
| 20260830113019 | 8 | 172 | 1.6 | 6.4 | 0.00 | 0.00 | 0.00 | 83 | 1033.3 |
| 20260830112503 | 8 | 167 | 3.2 | 6.4 | 0.00 | 0.00 | 0.00 | 83 | 1033.3 |
| 20260830112005 | 8 | 156 | 4.8 | 6.4 | 0.00 | 0.00 | 0.00 | 82 | 1033.2 |
| 20260830111503 | 8 | 168 | 3.2 | 6.4 | 0.00 | 0.00 | 0.00 | 82 | 1033.2 |
| 20260830111007 | 8 | 153 | 3.2 | 6.4 | 0.00 | 0.00 | 0.00 | 82 | 1033.1 |
| 20260830110505 | 8 | 158 | 3.2 | 6.4 | 0.00 | 0.00 | 0.00 | 81 | 1033.2 |
| 20260830110007 | 8 | 162 | 1.6 | 6.4 | 0.00 | 0.00 | 0.00 | 81 | 1033.1 |
| 20260830105503 | 8 | 157 | 3.2 | 8.0 | 0.00 | 0.00 | 0.00 | 80 | 1033.1 |
| 20260830105004 | 9 | 167 | 4.8 | 8.0 | 0.00 | 0.00 | 0.00 | 81 | 1033.0 |
| 20260830104512 | 8 | 156 | 4.8 | 8.0 | 0.00 | 0.00 | 0.00 | 80 | 1032.8 |
| 20260830104006 | 9 | 172 | 1.6 | 8.0 | 0.00 | 0.00 | 0.00 | 79 | 1032.8 |
| 20260830103501 | 9 | 135 | 4.8 | 6.4 | 0.00 | 0.00 | 0.00 | 79 | 1032.7 |
| 20260830103003 | 9 | 180 | 3.2 | 6.4 | 0.00 | 0.00 | 0.00 | 78 | 1032.8 |
| 20260830102503 | 9 | 185 | 1.6 | 6.4 | 0.00 | 0.00 | 0.00 | 77 | 1032.8 |
| 20260830102003 | 10 | 189 | 1.6 | 11.3 | 0.00 | 0.00 | 0.00 | 76 | 1032.7 |
| 20260830101504 | 10 | 143 | 4.8 | 12.9 | 0.00 | 0.00 | 0.00 | 77 | 1032.8 |
| 20260830101002 | 10 | 135 | 8.0 | 12.9 | 0.00 | 0.00 | 0.00 | 78 | 1032.8 |
| 20260830100504 | 9 | 129 | 1.6 | 8.0 | 0.00 | 0.00 | 0.00 | 77 | 1032.8 |
| 20260830100013 | 9 | 135 | 0.0 | 4.8 | 0.00 | 0.00 | 0.00 | 76 | 1032.8 |
| 20260830095503 | 10 | 135 | 1.6 | 4.8 | 0.00 | 0.00 | 0.00 | 76 | 1032.8 |
| 20260830095007 | 10 | 163 | 0.0 | 9.7 | 0.00 | 0.00 | 0.00 | 75 | 1032.7 |
| 20260830094504 | 10 | 164 | 0.0 | 14.5 | 0.00 | 0.00 | 0.00 | 74 | 1032.8 |
| 20260830094006 | 10 | 140 | 8.0 | 14.5 | 0.00 | 0.00 | 0.00 | 74 | 1032.7 |
| 20260830093503 | 10 | 114 | 8.0 | 12.9 | 0.00 | 0.00 | 0.00 | 74 | 1032.7 |
| 20260830093004 | 10 | 129 | 8.0 | 12.9 | 0.00 | 0.00 | 0.00 | 74 | 1032.7 |
| 20260830092511 | 10 | 111 | 6.4 | 14.5 | 0.00 | 0.00 | 0.00 | 74 | 1032.7 |
| 20260830092004 | 11 | 114 | 8.0 | 14.5 | 0.00 | 0.00 | 0.00 | 73 | 1032.7 |
| 20260830091504 | 11 | 119 | 11.3 | 14.5 | 0.00 | 0.00 | 0.00 | 73 | 1032.6 |
| 20260830091004 | 11 | 115 | 9.7 | 14.5 | 0.00 | 0.00 | 0.00 | 72 | 1032.6 |
| 20260830090502 | 11 | 122 | 11.3 | 17.7 | 0.00 | 0.00 | 0.00 | 72 | 1032.5 |
| 20260830090005 | 11 | 118 | 11.3 | 17.7 | 0.00 | 0.00 | 0.00 | 72 | 1032.6 |
| 20260830085502 | 11 | 114 | 12.9 | 16.1 | 0.00 | 0.00 | 0.00 | 72 | 1032.6 |
| 20260830085003 | 11 | 124 | 11.3 | 16.1 | 0.00 | 0.00 | 0.00 | 72 | 1032.6 |
| 20260830084503 | 11 | 117 | 9.7 | 12.9 | 0.00 | 0.00 | 0.00 | 72 | 1032.6 |
| 20260830084003 | 11 | 124 | 8.0 | 12.9 | 0.00 | 0.00 | 0.00 | 72 | 1032.5 |
| 20260830083508 | 11 | 120 | 6.4 | 12.9 | 0.00 | 0.00 | 0.00 | 72 | 1032.5 |
| 20260830083011 | 11 | 122 | 8.0 | 16.1 | 0.00 | 0.00 | 0.00 | 71 | 1032.4 |
| 20260830082504 | 11 | 120 | 9.7 | 16.1 | 0.00 | 0.00 | 0.00 | 71 | 1032.3 |
| 20260830082009 | 11 | 120 | 9.7 | 14.5 | 0.00 | 0.00 | 0.00 | 70 | 1032.1 |
| 20260830081506 | 11 | 115 | 11.3 | 14.5 | 0.00 | 0.00 | 0.00 | 70 | 1032.1 |
| 20260830081004 | 11 | 145 | 9.7 | 14.5 | 0.00 | 0.00 | 0.00 | 70 | 1032.2 |
| 20260830080510 | 11 | 116 | 8.0 | 14.5 | 0.00 | 0.00 | 0.00 | 70 | 1032.1 |
| 20260830080007 | 11 | 119 | 9.7 | 16.1 | 0.00 | 0.00 | 0.00 | 70 | 1032.1 |
| 20260830075505 | 11 | 133 | 11.3 | 16.1 | 0.00 | 0.00 | 0.00 | 70 | 1032.0 |
| 20260830075003 | 12 | 120 | 8.0 | 16.1 | 0.00 | 0.00 | 0.00 | 70 | 1032.0 |
| 20260830074503 | 12 | 133 | 9.7 | 16.1 | 0.00 | 0.00 | 0.00 | 69 | 1032.1 |
| 20260830074004 | 12 | 116 | 9.7 | 14.5 | 0.00 | 0.00 | 0.00 | 69 | 1032.1 |
| 20260830073504 | 12 | 118 | 8.0 | 12.9 | 0.00 | 0.00 | 0.00 | 69 | 1032.1 |
| 20260830073004 | 12 | 120 | 6.4 | 12.9 | 0.00 | 0.00 | 0.00 | 69 | 1032.1 |
| 20260830072508 | 12 | 116 | 6.4 | 12.9 | 0.00 | 0.00 | 0.00 | 69 | 1032.0 |
| 20260830072008 | 13 | 133 | 6.4 | 12.9 | 0.00 | 0.00 | 0.00 | 68 | 1032.0 |
| 20260830071513 | 13 | 134 | 6.4 | 14.5 | 0.00 | 0.00 | 0.00 | 68 | 1032.0 |
| 20260830071010 | 13 | 150 | 8.0 | 14.5 | 0.00 | 0.00 | 0.00 | 68 | 1032.0 |
| 20260830070504 | 13 | 126 | 4.8 | 14.5 | 0.00 | 0.00 | 0.00 | 68 | 1032.1 |
| 20260830070022 | 13 | 138 | 6.4 | 14.5 | 0.00 | 0.00 | 0.00 | 68 | 1032.1 |
| 20260830065505 | 13 | 122 | 9.7 | 14.5 | 0.00 | 0.00 | 0.00 | 68 | 1032.2 |
| 20260830065013 | 13 | 117 | 8.0 | 14.5 | 0.00 | 0.00 | 0.00 | 68 | 1032.1 |
| 20260830064517 | 13 | 142 | 6.4 | 14.5 | 0.00 | 0.00 | 0.00 | 66 | 1032.1 |
| 20260830064005 | 13 | 151 | 8.0 | 14.5 | 0.00 | 0.00 | 0.00 | 65 | 1032.0 |
| 20260830063503 | 13 | 145 | 9.7 | 14.5 | 0.00 | 0.00 | 0.00 | 66 | 1032.0 |
| 20260830063004 | 13 | 172 | 6.4 | 12.9 | 0.00 | 0.00 | 0.00 | 65 | 1032.1 |
| 20260830062504 | 13 | 126 | 6.4 | 14.5 | 0.00 | 0.00 | 0.00 | 65 | 1032.1 |
| 20260830062005 | 13 | 180 | 8.0 | 14.5 | 0.00 | 0.00 | 0.00 | 63 | 1032.1 |
| 20260830061512 | 13 | 162 | 6.4 | 12.9 | 0.00 | 0.00 | 0.00 | 65 | 1032.1 |
| 20260830061013 | 13 | 203 | 4.8 | 16.1 | 0.00 | 0.00 | 0.00 | 65 | 1032.1 |
| 20260830060507 | 13 | 134 | 11.3 | 16.1 | 0.00 | 0.00 | 0.00 | 64 | 1032.1 |
| 20260830060007 | 13 | 117 | 6.4 | 17.7 | 0.00 | 0.00 | 0.00 | 65 | 1032.2 |
| 20260830055514 | 13 | 122 | 11.3 | 19.3 | 0.00 | 0.00 | 0.00 | 64 | 1032.2 |
| 20260830055010 | 13 | 175 | 9.7 | 19.3 | 0.00 | 0.00 | 0.00 | 65 | 1032.3 |
| 20260830054504 | 13 | 180 | 9.7 | 14.5 | 0.00 | 0.00 | 0.00 | 66 | 1032.2 |
| 20260830054017 | 13 | 191 | 8.0 | 16.1 | 0.00 | 0.00 | 0.00 | 66 | 1032.2 |
| 20260830053506 | 13 | 199 | 8.0 | 16.1 | 0.00 | 0.00 | 0.00 | 65 | 1032.2 |
| 20260830053026 | 13 | 180 | 9.7 | 16.1 | 0.00 | 0.00 | 0.00 | 67 | 1032.3 |
| 20260830052508 | 13 | 154 | 11.3 | 16.1 | 0.00 | 0.00 | 0.00 | 66 | 1032.3 |
| 20260830052004 | 13 | 103 | 11.3 | 16.1 | 0.00 | 0.00 | 0.00 | 67 | 1032.3 |
| 20260830051506 | 13 | 175 | 9.7 | 14.5 | 0.00 | 0.00 | 0.00 | 69 | 1032.1 |
| 20260830051004 | 13 | 203 | 3.2 | 14.5 | 0.00 | 0.00 | 0.00 | 67 | 1032.1 |
| 20260830050507 | 13 | 175 | 8.0 | 16.1 | 0.00 | 0.00 | 0.00 | 69 | 1032.1 |
| 20260830050013 | 13 | 155 | 8.0 | 19.3 | 0.00 | 0.00 | 0.00 | 67 | 1032.2 |
| 20260830045512 | 13 | 157 | 9.7 | 19.3 | 0.00 | 0.00 | 0.00 | 68 | 1032.3 |
| 20260830045009 | 13 | 164 | 9.7 | 16.1 | 0.00 | 0.00 | 0.00 | 68 | 1032.3 |
| 20260830044534 | 13 | 163 | 9.7 | 19.3 | 0.00 | 0.00 | 0.00 | 69 | 1032.2 |
| 20260830044007 | 13 | 185 | 8.0 | 19.3 | 0.00 | 0.00 | 0.00 | 69 | 1032.2 |
| 20260830043513 | 13 | 152 | 11.3 | 17.7 | 0.00 | 0.00 | 0.00 | 70 | 1032.2 |
| 20260830043014 | 12 | 172 | 9.7 | 17.7 | 0.00 | 0.00 | 0.00 | 69 | 1032.2 |
| 20260830042519 | 13 | 185 | 9.7 | 16.1 | 0.00 | 0.00 | 0.00 | 70 | 1032.3 |
| 20260830042012 | 12 | 193 | 4.8 | 19.3 | 0.00 | 0.00 | 0.00 | 69 | 1032.4 |
| 20260830041513 | 12 | 245 | 9.7 | 19.3 | 0.00 | 0.00 | 0.00 | 70 | 1032.3 |
| 20260830041020 | 12 | 210 | 6.4 | 14.5 | 0.00 | 0.00 | 0.00 | 72 | 1032.3 |
| 20260830040514 | 12 | 199 | 9.7 | 17.7 | 0.00 | 0.00 | 0.00 | 71 | 1032.2 |
| 20260830040013 | 12 | 167 | 9.7 | 17.7 | 0.00 | 0.00 | 0.00 | 71 | 1032.2 |
| 20260830035508 | 12 | 220 | 6.4 | 14.5 | 0.00 | 0.00 | 0.00 | 73 | 1032.3 |
| 20260830035008 | 12 | 172 | 8.0 | 12.9 | 0.00 | 0.00 | 0.00 | 72 | 1032.3 |
| 20260830034513 | 12 | 172 | 3.2 | 17.7 | 0.00 | 0.00 | 0.00 | 72 | 1032.4 |